Austin Bergstrom International Airport
KAUS : now visible

Airfield :











YOU CAN JOIN US ON...

 
LOGIN :

Register | Disclaimer

   EN    FR    IT 

 









Legend :    VFR   Marginal VFR   IFR   Intensive IFR   Very Intensive IFR
Visi :
Ceiling :
>= 8 km
>= 3000ft
5 to 8 km
1000 to 3000 ft
1500m to 5 km
500 to 1000 ft
800 to 1500m
200 to 500 ft
< 800m
< 200 ft
Symbols :   Thunderstorms  Fog  Heavy snow  Heavy precipitations  Wind > 20 kt






- Airport Elevation : 542 ft
- IATA code : AUS


KAUS - Austin Bergstrom International

CURRENT METAR :
  • 201653Z 17011KT 10SM FEW033 SCT070 29/21 A3001 RMK AO2 SLP152 T02940206

EXPIRED METARs :
  • 201553Z 20010KT 10SM SCT021 BKN043 BKN070 27/22 A3003 RMK AO2 SLP157 T02720217
  • 201453Z 16009KT 8SM SCT010 BKN018 26/22 A3003 RMK AO2 SLP157 T02610222 51013

TAF KAUS
Valid from the 20 at 12:00 until the 21 at 18:00 UTC


201121Z 2012/2118 15007KT P6SM VCSH BKN015 BKN045
FM201700 16010KT P6SM SCT040
FM210600 16005KT P6SM OVC025
FM210900 17004KT P6SM OVC009
KZHU FIR / North America



MET'MAP, your aeronautical weather chart ! - Copyright ORBIFLY December 2007 - Disclaimer

ORBIFLY MET'MAP TEAM :

Programming & Development : Alexandra Zaïnal
Concept & original design : Baudouin d'Aumeries
Assistance for programming : Marc-Olivier Méhu
Technical & hardware support : Manuel Goepfert

Contact : metmap@orbifly.com




SOURCES & CREDITS :

   NOAA       Earth
Advisory